Tracking 19146 objects as of 23-Apr-2018
HD Live streaming from Space Station
objects crossing your sky now

FENGYUN 1C DEB

Track FENGYUN 1C DEB now!
10-day predictions


NORAD ID: 30611
Int'l Code: 1999-025AMS
Perigee: 425.3 km
Apogee: 674.2 km
Inclination: 98.6 °
Period: 95.5 minutes
Semi major axis: 6920 km
RCS: 0.0108 m2 (small)
Launch date: May 10, 1999
Source: People's Republic of China (PRC)
Launch site: Taiyaun Space Center, China (TSC)

Note: This is SATELLITE DEBRIS
aabbcc
Your satellite tracking list
Your tracking list is empty




NASA's NSSDC Master Catalog

Two Line Element Set (TLE):
1 30611U 99025AMS 18112.86898278 +.00003362 +00000-0 +15499-3 0  9990
2 30611 098.6319 083.4052 0179833 196.7610 162.7625 15.07905192604415
Source of the keplerian elements: AFSPC